User: anonymous   Login
Location: Unspecified
(0.0000°N, 0.0000°E)
Time: 06:44:19
(UTC+00:00)
Language:

TBA - TO BE ASSIGNED - Orbit

View from above orbital plane
View from above orbital plane
View from above satellite
View from above satellite

Ground track
Ground track

The orbit is defined by the following mean orbital elements,

1 67607U          26145.46423392 +.00000000 +00000-0 +47404-3 0 00002
2 67607  97.2853 210.6437 0000189   8.9866 351.1380 15.33458077    04
Epoch (UTC): 25 May 2026 11:08:29
Eccentricity: 0.0000189
inclination: 97.2853°
perigee height: 465 km
apogee height: 466 km
right ascension of ascending node: 210.6437°
argument of perigee: 8.9866°
revolutions per day: 15.33458077
mean anomaly at epoch: 351.1380°

The dashed part of the orbit path shows where the satellite is in the earth's shadow,  

DLR